Wausau, WI

3:00 AM CDT on July 24, 2017 (GMT -0500)
Wausau Downtown

Weather History for KAUW - April, 2014

Change the Weather History Date:

Friday, April 25, 2014

  Actual Average Record
Temperature  
Mean Temperature 47 °F 48 °F  
Max Temperature 57 °F 60 °F 85 °F (1990)
Min Temperature 36 °F 37 °F 23 °F (1934)
Degree Days  
Heating Degree Days 18 17  
Month to date heating degree days 644 553  
Since 1 July heating degree days 8923 7774  
Cooling Degree Days 0 0  
Month to date cooling degree days 0 0  
Year to date cooling degree days 0 0  
Moisture  
Dew Point 37 °F    
Average Humidity 74    
Maximum Humidity 100    
Minimum Humidity 47    
Precipitation  
Precipitation T in 0.11 in 1.21 in (1965)
Month to date precipitation 2.85 2.20  
Year to date precipitation 6.54 5.90  
Snow  
Snow 0.00 in 0.10 in 4.90 in (1917)
Month to date snowfall 8.4 3.7  
Since 1 July snowfall 84.3 59.0  
Snow Depth 0.00 in    
Sea Level Pressure  
Sea Level Pressure 29.73 in    
Wind  
Wind Speed 11 mph (West)    
Max Wind Speed 30 mph    
Max Gust Speed 37 mph    
Visibility 7 miles    
Events Rain    
T = Trace of Precipitation, MM = Missing Value Source: NWS Daily Summary

Daily Weather History Graph

Daily Weather History Graph

Search for Another Location

Airport or City:

Trip Planner

Search our weather history database for the weather conditions in past years. The results will help you decide how hot, cold, wet, or windy it might be!

Date:

Astronomy

Apr. 25, 2014 Rise Set
Actual Time 5:57 AM CDT 7:56 PM CDT
Civil Twilight 5:25 AM CDT 8:28 PM CDT
Nautical Twilight 4:46 AM CDT 9:07 PM CDT
Astronomical Twilight 4:04 AM CDT 9:50 PM CDT
Moon 3:56 AM CDT (4/25) 4:09 PM CDT (4/25)
Length of Visible Light 15h 02m
Length of Day
13h 59m
Waning Crescent, 15% of the Moon is Illuminated
Apr 25
Waning Crescent
Apr 29
New
May 6
First Quarter
May 14
Full
May 21
Last Quarter

Hourly Weather History & Observations

Time (CDT) Temp. Windchill Dew Point Humidity Pressure Visibility Wind Dir Wind Speed Gust Speed Precip Events Conditions
12:11 AM 37.9 °F 34.4 °F 37.9 °F 100% 29.68 in 2.5 mi SSE 4.6 mph - 0.01 in Rain Light Rain
12:43 AM 37.9 °F 34.4 °F 37.9 °F 100% 29.68 in 3.0 mi SE 4.6 mph - 0.01 in   Overcast
12:54 AM 37.9 °F 35.5 °F 37.9 °F 100% 29.73 in 3.0 mi South 3.5 mph - 0.01 in   Overcast
1:08 AM 39.0 °F 35.7 °F 39.0 °F 100% 29.69 in 2.0 mi SSE 4.6 mph - 0.00 in Rain Light Rain
1:54 AM 37.9 °F - 37.9 °F 100% 29.71 in 2.5 mi Calm Calm - 0.00 in   Overcast
2:09 AM 37.9 °F 35.5 °F 37.9 °F 100% 29.67 in 3.0 mi SE 3.5 mph - N/A   Overcast
2:18 AM 37.9 °F 35.5 °F 37.9 °F 100% 29.67 in 3.0 mi ESE 3.5 mph - N/A   Overcast
2:54 AM 39.0 °F - 39.0 °F 100% 29.70 in 3.0 mi Calm Calm - N/A   Overcast
3:03 AM 39.0 °F - 39.0 °F 100% 29.67 in 2.5 mi Calm Calm - N/A   Overcast
3:13 AM 39.0 °F - 39.0 °F 100% 29.67 in 2.5 mi Calm Calm - N/A   Overcast
3:40 AM 39.0 °F - 39.0 °F 100% 29.67 in 3.0 mi Calm Calm - N/A   Overcast
3:54 AM 39.0 °F 36.8 °F 39.0 °F 100% 29.72 in 3.0 mi SSE 3.5 mph - N/A   Overcast
4:37 AM 39.0 °F - 39.0 °F 100% 29.67 in 2.5 mi Calm Calm - N/A   Overcast
4:54 AM 39.0 °F - - N/A% 29.72 in 2.5 mi Calm Calm - N/A   Overcast
5:02 AM 39.0 °F - - N/A% 29.68 in 2.5 mi Calm Calm - N/A   Overcast
5:15 AM 39.0 °F 36.8 °F - N/A% 29.68 in 3.0 mi Variable 3.5 mph - N/A   Overcast
5:54 AM 39.9 °F 35.8 °F 39.9 °F 100% 29.74 in 10.0 mi NW 5.8 mph - N/A   Overcast
6:54 AM 39.9 °F 35.8 °F 39.9 °F 100% 29.75 in 10.0 mi WNW 5.8 mph - N/A   Overcast
7:22 AM 39.9 °F 35.8 °F 39.0 °F 97% 29.72 in 10.0 mi NNW 5.8 mph - N/A   Overcast
7:54 AM 39.9 °F 33.9 °F 39.9 °F 100% 29.75 in 10.0 mi NW 9.2 mph - N/A   Overcast
8:44 AM 42.1 °F 38.4 °F 39.9 °F 92% 29.72 in 10.0 mi WNW 5.8 mph - N/A   Overcast
8:54 AM 42.1 °F 39.2 °F 39.9 °F 92% 29.76 in 10.0 mi West 4.6 mph - N/A   Overcast
9:54 AM 43.0 °F 38.8 °F 39.0 °F 86% 29.75 in 10.0 mi SW 6.9 mph - N/A   Overcast
10:54 AM 45.0 °F 40.1 °F 39.9 °F 82% 29.76 in 10.0 mi SW 9.2 mph - N/A   Overcast
11:26 AM 46.9 °F - 39.9 °F 77% 29.71 in 10.0 mi WSW 9.2 mph - N/A   Overcast
11:54 AM 50.0 °F - 41.0 °F 71% 29.73 in 10.0 mi WSW 11.5 mph 19.6 mph N/A   Mostly Cloudy
12:03 PM 52.0 °F - 41.0 °F 66% 29.70 in 10.0 mi WSW 12.7 mph 19.6 mph N/A   Mostly Cloudy
12:54 PM 52.0 °F - 39.9 °F 63% 29.72 in 10.0 mi West 18.4 mph 26.5 mph N/A   Overcast
1:54 PM 55.0 °F - 37.0 °F 51% 29.72 in 10.0 mi West 26.5 mph 34.5 mph N/A   Mostly Cloudy
2:54 PM 55.0 °F - 35.1 °F 47% 29.73 in 10.0 mi West 26.5 mph 34.5 mph N/A   Overcast
3:54 PM 53.1 °F - 35.1 °F 50% 29.74 in 10.0 mi WNW 19.6 mph 32.2 mph N/A   Overcast
4:54 PM 52.0 °F - 36.0 °F 54% 29.76 in 10.0 mi West 20.7 mph 31.1 mph N/A   Mostly Cloudy
5:54 PM 51.1 °F - 34.0 °F 52% 29.77 in 10.0 mi WNW 17.3 mph 26.5 mph N/A   Scattered Clouds
6:54 PM 50.0 °F - 34.0 °F 54% 29.79 in 10.0 mi NNW 11.5 mph 21.9 mph N/A   Partly Cloudy
7:54 PM 46.0 °F 40.2 °F 32.0 °F 58% 29.83 in 10.0 mi NNW 12.7 mph - N/A   Overcast
8:54 PM 44.1 °F 39.0 °F 28.9 °F 55% 29.86 in 10.0 mi NNW 9.2 mph 16.1 mph N/A   Scattered Clouds
9:54 PM 42.1 °F 36.6 °F 28.9 °F 60% 29.88 in 10.0 mi NNW 9.2 mph - N/A   Clear
10:54 PM 39.9 °F 35.1 °F 30.9 °F 70% 29.89 in 10.0 mi NNW 6.9 mph - N/A   Clear